Weather Roundup
Issued by NWS Chicago, IL

Home | Current Version | Previous Version | Text Only | Print | Product List | Glossary On
Versions: 1 2 3 4 5 6 7 8 9 10 11 12 13 14 15 16 17 18 19 20 21 22 23 24 25 26 27 28 29 30 31 32 33 34 35 36 37 38 39 40 41 42 43 44 45 46 47 48 49 50
000
NZUS59 KLOT 281910
HRRLOT

CHICAGO AREA WEATHER ROUNDUP
NATIONAL WEATHER SERVICE CHICAGO/ROMEOVILLE IL
100 PM CST FRI NOV 28 2014

NOTE: "FAIR" INDICATES FEW OR NO CLOUDS BELOW 12,000 FEET WITH NO
SIGNIFICANT WEATHER AND/OR OBSTRUCTIONS TO VISIBILITY.

* THESE STATIONS ARE NOT UNDER NWS QUALITY CONTROL. THEY ALSO MAY NOT
  REPORT WEATHER SUCH AS PRECIPITATION OR FOG.

ILZ005-006-012>014-019>023-282000-
NORTHEAST ILLINOIS

CITY           SKY/WX    TMP DP  RH WIND       PRES   REMARKS
OHARE          CLOUDY    29  18  63 S16       30.06F WCI  17
MIDWAY         CLOUDY    31  18  58 S13       30.08F WCI  21
AURORA         CLOUDY    30  21  69 SE17      30.04F WCI  18
LANSING*       PTSUNNY   30  18  59 S16       30.09F WCI  19
JOLIET*        CLOUDY    30  22  72 S9        30.07F WCI  22
WAUKEGAN       CLOUDY    27  17  66 S13       30.04F WCI  16
DUPAGE AIRPORT CLOUDY    28  19  69 S16       30.04F WCI  16
WHEELING       CLOUDY    29  17  61 S15       30.07F WCI  18
KANKAKEE*      PTSUNNY   32  23  69 SE14G22   30.09F WCI  22
MORRIS*        CLOUDY    32  27  81 SE15      30.05F WCI  21
LEWIS AIRPORT* CLOUDY    30  22  71 S14       30.06F WCI  19
NORTHERLY IS     N/A     30  18  60 S14         N/A  WCI  20
$$

WIZ051-052-058>065-066-070>072-282000-
SOUTHEAST WISCONSIN

CITY           SKY/WX    TMP DP  RH WIND       PRES   REMARKS
MILWAUKEE      CLOUDY    28  18  66 S13       30.04F WCI  17
KENOSHA*       CLOUDY    27  18  69 S12       30.04F WCI  17
RACINE*        CLOUDY    29  20  69 S14G23    30.05F WCI  18
BURLINGTON     CLOUDY    25  17  69 S12       30.03F WCI  15
WAUKESHA       PTSUNNY   23  14  68 SE12      30.03F WCI  12
WEST BEND      CLOUDY    27  14  59 SE8       30.00F WCI  18
$$

INZ001>003-010>013-019-020-282000-
NORTHWEST INDIANA

CITY           SKY/WX    TMP DP  RH WIND       PRES   REMARKS
GARY*          PTSUNNY   32  18  55 SE22      30.10F WCI  19
MICHIGAN CITY* NOT AVBL
RENSSELAER*    NOT AVBL
VALPARAISO     MOSUNNY   29  19  66 SE10G20   30.11F WCI  20
$$

LMZ740>746-282000-
SOUTHERN LAKE MICHIGAN

STATION/POSITION TIME  SKY/WX   TEMP WIND        PRES    VSBY
                                AIR  DIR/SP/G
                 (UTC)          (F)  (DEG/KT/KT) (MB)    (MI)
HARRISON CRIB    1900            29  160/ 24/ 29   N/A
BURNHAM HARBOR   1900            30  160/ 11/ 17   N/A
CALUMET HARBOR   1900            29  150/ 13/ 17 1017.5F
BURNS HARBOR     NOT AVBL
MICHIGAN CITY    1900            28  130/ 14/ 18   N/A
$$

ABBREVIATIONS USED IN REMARKS
   TC - TEMPERATURE IN CELSIUS
  WCI - WIND CHILL INDEX
   HX - HEAT INDEX
  VSB - VISIBILITY
$$



USA.gov is the U.S. government's official web portal to all federal, state and local government web resources and services.